FW2973 Weather Reports


time (UTC)temp
F
wind
direction
speed
knots
gust
knots
rain 1hr
in
rain 24hr
in
rain mn
in
humidity
%
barometer
mb
20260507142751 55 15 1.7 3.5 0.00 0.15 0.33 78 1011.0
20260507142515 55 261 1.7 3.5 0.00 0.15 0.33 77 1011.0
20260507141751 54 333 0.9 5.2 0.00 0.15 0.33 80 1011.1
20260507141250 54 10 1.7 5.2 0.00 0.15 0.33 81 1011.0
20260507141010 54 240 1.7 7.0 0.00 0.15 0.33 82 1011.1
20260507140250 53 274 2.6 7.0 0.00 0.15 0.33 83 1011.1
20260507135750 53 246 2.6 7.0 0.00 0.15 0.33 85 1011.1
20260507135510 52 280 2.6 7.0 0.00 0.15 0.33 86 1011.0
20260507134750 52 182 2.6 5.2 0.00 0.15 0.33 88 1011.1
20260507134447 51 247 2.6 7.8 0.00 0.15 0.33 90 1011.2
20260507134334 51 268 2.6 7.8 0.00 0.15 0.33 88 1011.1
20260507133250 51 255 2.6 6.1 0.00 0.15 0.33 90 1011.2
20260507132750 51 264 2.6 6.1 0.00 0.15 0.33 91 1011.3
20260507132251 51 262 2.6 6.1 0.00 0.15 0.33 92 1011.4
20260507131750 50 262 2.6 6.1 0.00 0.15 0.33 93 1011.2
20260507131252 50 244 1.7 6.1 0.00 0.15 0.33 94 1011.3
20260507130740 50 315 2.6 6.1 0.00 0.15 0.33 94 1011.3
20260507130502 50 203 1.7 4.3 0.00 0.15 0.33 94 1011.1
20260507130002 49 70 1.7 4.3 0.00 0.15 0.33 94 1011.2
20260507125238 49 267 1.7 4.3 0.00 0.15 0.33 94 1011.2
20260507124738 49 262 1.7 4.3 0.00 0.15 0.33 94 1011.2
20260507124222 49 89 1.7 4.3 0.00 0.15 0.33 94 1011.2
20260507123722 49 342 1.7 3.5 0.00 0.15 0.33 94 1011.3
20260507123222 49 248 1.7 3.5 0.00 0.15 0.33 94 1011.1
20260507122940 49 271 1.7 3.5 0.00 0.15 0.33 94 1011.2
20260507122223 49 257 0.9 2.6 0.00 0.15 0.33 94 1011.1
20260507121723 49 208 0.9 3.5 0.00 0.15 0.33 94 1011.3
20260507121223 49 0 1.7 3.5 0.00 0.15 0.33 94 1011.4
20260507120943 49 271 1.7 4.3 0.00 0.15 0.33 94 1011.5
20260507120444 49 260 1.7 4.3 0.00 0.15 0.33 94 1011.5
20260507115723 49 265 1.7 2.6 0.02 0.15 0.33 94 1011.2
20260507115223 49 270 1.7 2.6 0.04 0.15 0.33 94 1010.9
20260507114723 49 263 1.7 4.3 0.05 0.15 0.33 94 1011.0
20260507114223 49 253 1.7 4.3 0.06 0.15 0.33 94 1011.0
20260507113708 49 257 1.7 4.3 0.06 0.15 0.33 94 1011.1
20260507113208 49 0 0.9 1.7 0.08 0.15 0.33 94 1010.9
20260507112708 49 285 1.7 2.6 0.08 0.15 0.33 94 1010.9
20260507112153 49 255 1.7 2.6 0.09 0.15 0.33 94 1011.1
20260507111653 49 212 1.7 3.5 0.09 0.15 0.33 94 1011.1
20260507111154 49 236 1.7 3.5 0.12 0.15 0.33 94 1011.1
20260507110654 49 268 1.7 2.6 0.13 0.15 0.33 94 1010.9
20260507110644 49 256 1.7 2.6 0.13 0.15 0.33 94 1010.8
20260507105652 49 255 1.7 2.6 0.11 0.12 0.31 94 1011.0
20260507105153 49 240 1.7 2.6 0.09 0.10 0.29 94 1010.9
20260507104653 49 262 0.9 2.6 0.08 0.09 0.28 94 1010.8
20260507104140 49 255 0.9 1.7 0.07 0.09 0.28 93 1010.6
20260507103639 49 0 0.0 1.7 0.07 0.08 0.27 93 1010.5
20260507103139 49 0 0.0 0.0 0.06 0.06 0.25 93 1010.5
20260507102640 48 0 0.0 0.9 0.06 0.06 0.25 93 1010.5
20260507102125 49 0 0.0 1.7 0.06 0.06 0.25 93 1010.6
20260507101625 49 135 0.0 1.7 0.04 0.05 0.24 93 1010.8
20260507101125 49 128 0.0 1.7 0.02 0.02 0.21 93 1010.7
20260507100842 49 0 0.9 1.7 0.02 0.02 0.20 93 1010.7
20260507100125 49 0 0.9 1.7 0.02 0.02 0.20 93 1010.7
20260507095625 49 143 0.9 1.7 0.02 0.02 0.20 93 1010.6
20260507095607 49 89 0.9 2.6 0.02 0.02 0.20 93 1010.6
20260507094852 49 264 0.9 2.6 0.02 0.02 0.20 93 1010.7
20260507094110 49 41 1.7 3.5 0.01 0.01 0.20 93 1010.5
20260507093611 49 26 1.7 3.5 0.01 0.01 0.20 93 1010.6
20260507093111 49 94 0.9 1.7 0.00 0.00 0.19 93 1010.2
20260507092612 49 203 0.9 1.7 0.00 0.00 0.19 93 1010.2
20260507092336 49 236 0.9 3.5 0.00 0.00 0.19 93 1010.4
20260507091829 49 185 0.9 3.5 0.00 0.00 0.19 93 1010.3
20260507091600 49 73 0.9 1.7 0.00 0.00 0.19 92 1010.2
20260507090613 49 88 0.9 2.6 0.00 0.00 0.19 92 1010.1
20260507090112 49 227 0.9 4.3 0.00 0.00 0.19 92 1010.2
20260507085558 0 0.0 0.0 0.00 0.00 0.19
20260507084241 49 80 0.9 2.6 0.11 0.25 0.19 92 1010.0
20260507083742 49 122 0.9 2.6 0.11 0.24 0.18 92 1010.0
20260507083243 50 141 0.9 2.6 0.12 0.24 0.18 92 1010.1
20260507082742 50 264 0.9 2.6 0.15 0.23 0.17 92 1010.1
20260507082243 50 258 0.9 1.7 0.16 0.23 0.17 92 1010.1
20260507081742 50 200 0.9 2.6 0.17 0.22 0.17 92 1010.1
20260507081512 50 272 0.9 2.6 0.16 0.22 0.16 92 1010.0
20260507080742 51 175 0.9 2.6 0.16 0.22 0.16 92 1010.0
20260507080244 51 81 1.7 4.3 0.15 0.21 0.15 91 1009.9
20260507075743 51 243 1.7 4.3 0.12 0.18 0.12 91 1010.5
20260507075719 51 55 2.6 5.2 0.09 0.15 0.09 91 1010.6
20260507074733 52 254 2.6 5.2 0.09 0.15 0.09 91 1010.5
20260507074228 52 302 1.7 6.1 0.08 0.14 0.09 90 1010.3
20260507073728 53 296 1.7 6.1 0.07 0.13 0.07 89 1010.3
20260507073228 53 209 1.7 4.3 0.06 0.11 0.06 88 1010.5
20260507072728 53 151 1.7 4.3 0.02 0.08 0.02 87 1010.5
20260507072227 54 262 1.7 4.3 0.01 0.07 0.01 87 1009.9
20260507071729 54 257 1.7 4.3 0.00 0.06 0.00 87 1009.6
20260507071228 54 121 0.9 2.6 0.00 0.06 0.00 89 1009.1
20260507070728 54 88 0.9 1.7 0.00 0.06 0.00 90 1009.1
20260507070228 54 227 0.9 1.7 0.00 0.06 0.00 90 1009.1
20260507065953 55 155 0.9 1.7 0.00 0.06 0.00 91 1009.0
20260507065228 55 350 0.9 1.7 0.00 0.06 0.00 91 1009.0
20260507064728 55 0 0.9 2.6 0.00 0.06 0.00 91 1009.0
20260507064227 56 59 0.9 2.6 0.00 0.06 0.00 91 1009.2
20260507063729 56 0 0.9 3.5 0.00 0.06 0.00 91 1009.3
20260507063450 56 305 0.9 3.5 0.00 0.06 0.00 91 1009.3
20260507062715 56 235 0.9 4.3 0.00 0.06 0.00 91 1009.2
20260507062159 56 356 0.9 4.3 0.00 0.06 0.00 91 1009.2
20260507061922 57 237 0.9 2.6 0.00 0.06 0.00 92 1009.2
20260507061159 57 260 0.9 2.6 0.00 0.06 0.00 92 1009.1
20260507060700 57 191 0.0 1.7 0.00 0.06 0.00 92 1009.2
20260507060200 57 197 0.9 1.7 0.00 0.06 0.00 92 1009.2
20260507055701 57 262 0.9 2.6 0.00 0.06 0.00 92 1009.2
20260507055157 57 243 1.7 3.5 0.00 0.06 0.00 92 1009.3
20260507054659 57 195 1.7 3.5 0.00 0.06 0.00 92 1009.4
20260507054420 57 51 1.7 2.6 0.00 0.06 0.00 92 1009.4
20260507053644 58 116 1.7 3.5 0.00 0.06 0.00 92 1009.5
20260507053131 58 225 1.7 3.5 0.00 0.06 0.00 92 1009.6
20260507052629 58 254 1.7 3.5 0.00 0.06 0.00 92 1009.6
20260507052115 58 251 1.7 3.5 0.00 0.06 0.00 92 1009.6
20260507051615 58 218 1.7 3.5 0.00 0.06 0.00 92 1009.6
20260507051337 58 250 0.9 3.5 0.00 0.06 0.00 92 1009.7
20260507050615 58 232 0.9 1.7 0.00 0.06 0.00 92 1009.6
20260507050338 58 0 0.9 1.7 0.00 0.06 0.00 93 1009.7
20260507045615 58 254 1.7 3.5 0.00 0.06 0.00 93 1009.8
20260507045116 58 219 1.7 3.5 0.00 0.06 0.00 93 1009.7
20260507044616 58 270 0.9 3.5 0.00 0.06 0.00 93 1009.7
20260507044116 58 289 0.9 2.6 0.00 0.06 0.00 93 1009.7
20260507043820 58 251 1.7 2.6 0.00 0.06 0.00 94 1009.6
20260507043100 58 265 1.7 2.6 0.00 0.06 0.00 94 1009.7
20260507042600 59 282 1.7 3.5 0.00 0.06 0.00 94 1009.7
20260507042100 59 257 1.7 3.5 0.00 0.06 0.00 94 1009.7
20260507041601 59 289 1.7 3.5 0.00 0.06 0.00 94 1009.6
20260507041101 59 243 1.7 5.2 0.00 0.06 0.00 94 1009.4
20260507040601 59 194 1.7 5.2 0.00 0.06 0.00 94 1009.5
20260507035601 58 190 2.6 4.3 0.00 0.06 0.06 94 1009.6
20260507035534 58 238 2.6 4.3 0.00 0.06 0.06 94 1009.5
20260507034819 58 262 1.7 3.5 0.00 0.06 0.06 94 1009.5
20260507034306 58 260 2.6 4.3 0.00 0.06 0.06 94 1009.4
20260507033531 58 193 1.7 4.3 0.00 0.06 0.06 94 1009.5
20260507033031 58 170 1.7 4.3 0.00 0.06 0.06 94 1009.6
20260507032532 58 169 1.7 4.3 0.00 0.06 0.06 94 1009.8
20260507032032 58 183 1.7 4.3 0.00 0.06 0.06 95 1009.8
20260507031756 58 243 1.7 5.2 0.00 0.06 0.06 95 1009.7
20260507031020 58 246 1.7 5.2 0.00 0.06 0.06 94 1009.6
20260507030517 58 278 2.6 5.2 0.00 0.06 0.06 94 1009.5
20260507030009 58 218 2.6 6.1 0.00 0.06 0.06 94 1009.6
20260507025508 58 225 2.6 6.1 0.00 0.06 0.06 94 1009.5
20260507025001 58 198 2.6 6.1 0.00 0.06 0.06 94 1009.5
20260507024502 58 161 2.6 5.2 0.00 0.06 0.06 94 1009.5
20260507024000 58 223 2.6 5.2 0.00 0.06 0.06 94 1009.5
20260507023500 58 239 2.6 5.2 0.00 0.06 0.06 94 1009.4
20260507023000 57 191 1.7 5.2 0.00 0.06 0.06 94 1009.5
20260507022501 57 240 2.6 5.2 0.00 0.06 0.06 94 1009.5
20260507022001 57 251 2.6 5.2 0.00 0.06 0.06 94 1009.5
20260507021501 57 236 2.6 5.2 0.00 0.06 0.06 94 1009.5
20260507021001 57 196 1.7 5.2 0.00 0.06 0.06 94 1009.5
20260507020501 57 234 1.7 5.2 0.00 0.06 0.06 94 1009.5
20260507020001 57 177 1.7 4.3 0.00 0.06 0.06 94 1009.5
20260507015502 57 128 1.7 5.2 0.00 0.06 0.06 94 1009.5
20260507015231 57 228 1.7 5.2 0.00 0.06 0.06 94 1009.5
20260507014501 57 235 1.7 5.2 0.00 0.06 0.06 94 1009.5
20260507013957 57 194 2.6 5.2 0.00 0.06 0.06 94 1009.5
20260507013943 57 163 2.6 5.2 0.00 0.06 0.06 94 1009.6
20260507012957 57 196 2.6 7.0 0.00 0.06 0.06 94 1009.6
20260507012452 57 190 2.6 7.0 0.00 0.06 0.06 94 1009.6
20260507012214 57 229 2.6 6.1 0.00 0.06 0.06 94 1009.8
20260507011449 57 248 2.6 5.2 0.00 0.06 0.06 94 1009.8
20260507011411 57 250 2.6 4.3 0.00 0.06 0.06 94 1009.8
20260507010654 57 240 2.6 4.3 0.00 0.06 0.06 94 1009.8
20260507005934 57 244 2.6 5.2 0.00 0.06 0.06 94 1009.7
20260507005421 56 184 2.6 5.2 0.00 0.06 0.06 94 1009.9
20260507004921 56 190 2.6 5.2 0.00 0.06 0.06 94 1009.9
20260507004421 56 184 2.6 5.2 0.00 0.06 0.06 94 1009.8
20260507003922 56 240 2.6 5.2 0.00 0.06 0.06 94 1009.9
20260507003421 56 250 2.6 4.3 0.00 0.06 0.06 94 1009.8
20260507002919 56 161 1.7 3.5 0.00 0.06 0.06 94 1009.8
20260507002419 56 157 2.6 6.1 0.00 0.06 0.06 94 1009.7
20260507001910 56 200 2.6 6.1 0.00 0.06 0.06 94 1009.7
20260507001410 56 237 2.6 5.2 0.00 0.06 0.06 93 1009.7
20260507001133 56 179 2.6 5.2 0.00 0.06 0.06 93 1009.7
20260507000412 56 177 2.6 5.2 0.00 0.06 0.06 93 1009.7
20260506235905 57 215 2.6 5.2 0.00 0.06 0.06 93 1009.7
20260506235846 57 202 2.6 5.2 0.00 0.06 0.06 93 1009.7
20260506234905 57 223 2.6 5.2 0.00 0.06 0.06 93 1009.7
20260506234405 57 272 2.6 6.1 0.00 0.06 0.06 93 1009.6
20260506233905 57 203 2.6 6.1 0.00 0.06 0.06 93 1009.6
20260506233405 57 238 2.6 5.2 0.00 0.06 0.06 93 1009.5
20260506232904 57 252 2.6 7.0 0.01 0.06 0.06 93 1009.5
20260506232406 57 192 3.5 7.0 0.01 0.06 0.06 93 1009.5
20260506231905 57 209 3.5 7.0 0.00 0.06 0.06 93 1009.6
20260506231406 57 221 2.6 5.2 0.00 0.06 0.06 93 1009.6
20260506230906 57 194 2.6 5.2 0.00 0.06 0.06 93 1009.6
20260506230623 57 357 2.6 7.0 0.00 0.06 0.06 93 1009.6
20260506225900 57 229 2.6 7.0 0.00 0.06 0.06 93 1009.6
20260506225354 57 154 2.6 6.1 0.00 0.06 0.06 92 1009.7
20260506224851 57 219 2.6 4.3 0.00 0.06 0.06 92 1009.6
20260506224335 57 161 2.6 4.3 0.00 0.06 0.06 92 1009.5
20260506223835 57 201 2.6 4.3 0.00 0.06 0.06 92 1009.5
20260506223335 58 184 2.6 4.3 0.00 0.06 0.06 92 1009.4
20260506223102 58 175 2.6 4.3 0.00 0.05 0.05 92 1009.4
20260506222559 58 192 2.6 4.3 0.00 0.05 0.05 92 1009.5
20260506221836 58 188 2.6 4.3 0.00 0.05 0.05 92 1009.5
20260506221336 58 211 2.6 5.2 0.00 0.05 0.05 92 1009.5
20260506220830 58 142 2.6 5.2 0.00 0.05 0.05 91 1009.7
20260506220330 58 160 3.5 5.2 0.00 0.05 0.05 91 1009.8
20260506215830 58 173 2.6 5.2 0.00 0.05 0.05 91 1009.9
20260506215327 59 191 2.6 5.2 0.00 0.05 0.05 91 1009.8
20260506214825 59 275 1.7 5.2 0.00 0.05 0.05 90 1009.8
20260506214547 59 174 1.7 6.1 0.00 0.05 0.05 90 1010.0
20260506213818 59 171 2.6 6.1 0.00 0.05 0.05 90 1009.9
20260506213318 59 174 3.5 7.0 0.00 0.05 0.05 90 1009.9
20260506212813 60 228 3.5 7.8 0.00 0.05 0.05 90 1010.0
20260506212313 60 247 3.5 9.6 0.00 0.05 0.05 89 1010.0
20260506211813 60 221 3.5 9.6 0.00 0.05 0.05 89 1010.0
20260506211312 60 197 3.5 7.0 0.00 0.05 0.05 89 1010.1
20260506210812 60 198 2.6 7.0 0.00 0.05 0.05 90 1010.2
20260506210313 60 186 2.6 7.8 0.00 0.05 0.05 90 1010.2
20260506205813 60 286 3.5 7.8 0.00 0.05 0.05 90 1010.2
20260506205313 60 192 2.6 7.8 0.00 0.05 0.05 90 1010.3
20260506204813 60 168 2.6 8.7 0.00 0.05 0.05 90 1010.3
20260506204531 59 45 3.5 8.7 0.00 0.05 0.05 90 1010.3
20260506203813 59 273 3.5 7.8 0.00 0.05 0.05 90 1010.3
20260506203537 59 150 3.5 9.6 0.01 0.05 0.05 90 1010.4
20260506202810 59 257 4.3 9.6 0.02 0.05 0.05 90 1010.4
20260506202308 59 289 4.3 7.8 0.02 0.05 0.05 90 1010.4
20260506201808 59 206 4.3 7.8 0.03 0.05 0.05 90 1010.4
20260506201308 59 263 3.5 9.6 0.04 0.05 0.05 90 1010.4
20260506200808 59 179 3.5 9.6 0.04 0.05 0.05 90 1010.5
20260506200308 60 247 3.5 9.6 0.04 0.05 0.05 89 1010.6
20260506195808 60 231 3.5 6.1 0.04 0.05 0.05 89 1010.6
20260506195308 60 160 3.5 6.1 0.05 0.05 0.05 89 1010.5
20260506194808 60 173 3.5 7.0 0.05 0.05 0.05 89 1010.4
20260506194530 61 89 3.5 7.0 0.05 0.05 0.05 88 1010.5
20260506194031 61 198 3.5 7.0 0.05 0.05 0.05 87 1010.6
20260506193306 62 172 2.6 5.2 0.04 0.04 0.04 87 1010.6
20260506193027 62 214 2.6 7.0 0.03 0.03 0.03 86 1010.6
20260506192306 62 187 3.5 7.0 0.03 0.03 0.03 85 1010.6
20260506191806 62 203 3.5 7.0 0.02 0.02 0.02 84 1010.7
20260506191307 63 213 3.5 8.7 0.02 0.02 0.02 83 1010.6
20260506190807 63 162 3.5 8.7 0.01 0.01 0.01 82 1010.7
20260506190307 64 207 3.5 6.1 0.01 0.01 0.01 80 1010.8
20260506190031 64 319 3.5 7.8 0.01 0.01 0.01 79 1010.8
20260506185307 64 231 3.5 7.8 0.00 0.00 0.00 78 1010.9
20260506185029 64 178 3.5 7.8 0.00 0.00 0.00 77 1011.0
20260506184308 64 146 3.5 7.8 0.00 0.00 0.00 77 1011.0
20260506183808 65 205 3.5 7.8 0.00 0.00 0.00 76 1010.8
20260506183528 65 187 3.5 7.8 0.00 0.00 0.00 75 1010.9
20260506182809 66 311 3.5 7.8 0.00 0.00 0.00 74 1011.0
20260506182052 66 164 3.5 7.8 0.00 0.00 0.00 74 1011.1
20260506181551 66 177 3.5 8.7 0.00 0.00 0.00 73 1011.1
20260506181046 66 175 4.3 8.7 0.00 0.00 0.00 73 1011.1
20260506180546 66 204 3.5 8.7 0.00 0.00 0.00 72 1011.0
20260506180046 67 162 3.5 7.8 0.00 0.00 0.00 72 1011.1
20260506175546 67 102 3.5 7.8 0.00 0.00 0.00 71 1011.2
20260506175046 67 171 3.5 7.0 0.00 0.00 0.00 70 1011.3
20260506174546 67 211 3.5 7.8 0.00 0.00 0.00 70 1011.3
20260506174313 68 200 3.5 7.8 0.00 0.00 0.00 69 1011.3
20260506173546 68 184 3.5 6.1 0.00 0.00 0.00 69 1011.4
20260506173046 68 203 3.5 7.0 0.00 0.00 0.00 69 1011.5
20260506172542 68 159 3.5 7.0 0.00 0.00 0.00 68 1011.7
20260506172040 68 305 3.5 7.8 0.00 0.00 0.00 68 1011.7
20260506171541 68 10 4.3 8.7 0.00 0.00 0.00 68 1011.6
20260506171041 69 179 4.3 8.7 0.00 0.00 0.00 68 1011.5
20260506170541 69 237 3.5 7.8 0.00 0.00 0.00 67 1011.5
20260506170041 69 246 3.5 10.4 0.00 0.00 0.00 66 1011.4
20260506165541 69 334 3.5 10.4 0.00 0.00 0.00 68 1011.5
20260506165041 69 185 4.3 12.2 0.00 0.00 0.00 66 1011.6
20260506164541 69 113 4.3 12.2 0.00 0.00 0.00 66 1011.7
20260506164041 69 249 4.3 12.2 0.00 0.00 0.00 67 1011.8
20260506164022 69 160 5.2 10.4 0.00 0.00 0.00 66 1012.0
20260506163042 69 229 5.2 10.4 0.00 0.00 0.00 66 1012.0
20260506162541 69 169 5.2 12.2 0.00 0.00 0.00 66 1012.2
20260506162041 69 172 5.2 12.2 0.00 0.00 0.00 65 1012.2
20260506161541 69 180 5.2 8.7 0.00 0.00 0.00 66 1012.0
20260506161304 69 188 4.3 7.8 0.00 0.00 0.00 65 1012.2
20260506160541 70 175 3.5 7.0 0.00 0.00 0.00 66 1012.3
20260506160036 70 172 2.6 7.0 0.00 0.00 0.00 66 1012.3
20260506155536 70 144 3.5 8.7 0.00 0.00 0.00 65 1012.4
20260506155037 70 262 4.3 10.4 0.00 0.00 0.00 64 1012.5
20260506154536 70 268 3.5 10.4 0.00 0.00 0.00 64 1012.6
20260506154036 70 226 3.5 7.8 0.00 0.00 0.00 65 1012.5
20260506153536 70 135 4.3 7.8 0.00 0.00 0.00 65 1012.5
20260506153036 70 191 4.3 9.6 0.00 0.00 0.00 65 1012.6
20260506152802 70 208 3.5 9.6 0.00 0.00 0.00 66 1012.7
20260506152036 69 184 2.6 10.4 0.00 0.00 0.00 68 1012.7
20260506151536 69 168 3.5 10.4 0.00 0.00 0.00 68 1012.8
20260506151036 69 299 3.5 8.7 0.00 0.00 0.00 69 1012.7
20260506150536 69 164 3.5 7.0 0.00 0.00 0.00 68 1012.8
20260506150036 68 160 2.6 7.0 0.00 0.00 0.00 69 1012.9
20260506145536 68 175 3.5 8.7 0.00 0.00 0.00 70 1012.8
20260506145251 68 253 3.5 9.6 0.00 0.00 0.00 71 1012.8
20260506144756 68 280 3.5 9.6 0.00 0.00 0.00 70 1012.8
20260506144030 68 176 2.6 7.0 0.00 0.00 0.00 70 1012.8
20260506143531 68 278 3.5 7.0 0.00 0.00 0.00 69 1012.7